COSMOS 505

Satellite information

Favourite Embed

Satellite Type and Status

PAYLOADIN ORBIT

Key statistics

Satellite COSMOS 505 at a glance.

Uptime

19464

Days in orbit

Revolutions

≈ 12.6

Per day

Orbit

LEO

Low Earth Orbit

Inclination

74.0

Latest

Satellite identification and parameters

Extended collection of information and parameters for COSMOS 505.

Object identification

Identified? True

Debris? False

Object name: COSMOS 505

International designator: 1972-057B

Object number (NORAD): 6118

Object ID (CCSDS): 6118

Country: COMMONWEALTH OF INDEPENDENT STATES (CIS)

Current information (Y/N): Y

RCS size: MEDIUM

Orbital parameters

Period: 114.302 minutes

Inclination: 74.0256 deg

SMA: 7801.839 km

Apoapsis: 1495.995 km

Periapsis: 1351.414 km

RAAN: 161.224 deg

Eccentricy: 0.00926587

Argument of periapsis: 194.0088 deg

Mean anomaly: 194.2949 deg

Mean motion: 12.59816396 rev/day

Mean motion (dot): 0.00000006 rev/day2

B* drag term: 0.00012455775 1/REarth

Two-line elements (TLE)

Creation date: Nov. 1, 2025, 7:40 p.m.

Reference frame: TEME

Reference center: EARTH

Epoch: Nov. 1, 2025, 2:33 p.m. UTC

TLE line 0: 0 COSMOS 505

TLE line 1: 1 06118U 72057B 25305.60675615 .00000006 00000-0 12456-3 0 9995

TLE line 2: 2 06118 74.0256 161.2240 0092659 194.0088 194.2949 12.59816396450411

Live tracking on map

Real-time ground track for satellite COSMOS 505.

In-orbit conjunctions

There are no conjunctions computed for COSMOS 505, at the moment. Check back to stay up to date, as we update our databases every day.

Go to all conjunctions

Associated space launch

Military communications satellites

COSMOS 505 was lifted into orbit during the mission ‘Kosmos-3M | Strela-1M 25-32’, on board a Kosmos-3M space rocket.

The launch took place on July 20, 1972, 6:10 p.m. from 132/2.

For more information about the launch, click the button.

Launch to space Kosmos-3M | Strela-1M 25-32
Kosmos-3M | Strela-1M 25-32

Agency: N/A

Status: Launch Successful

Launch date: July 20, 1972, 6:10 p.m. UTC

Rocket: Kosmos-3M

Launch pad: 132/2

Location: Plesetsk Cosmodrome, Russian Federation

...

Latest news about this satellite

There are no fresh news available about this satellite. Check back as we update our databases every day.


Newsletter sign-up

Weekly statistics, charts and insights to help you stay on top of the space industry.